Showing default

ORBCOMM FM 14, 25419

Orbit data source: Space-Track

ORBCOMM FM 14, 25419 is a payload satellite owned by Orbcomm (US) in LEO that was launched on Sun, 02 Aug 1998 UTC via a PEGASUS XL/HAPS launch vehicle from the Pegasus Launch, Eastern Range Air Space (ERAS). Payload-class satellites include a variety of spacecraft equipped with specific instruments for various scientific and technological missions. These include communications satellites like Starlink; space stations such as the ISS; scientific satellites like the Hubble; Earth observation satellites from companies like Planet Labs, Umbra, and HawkEye 360; GPS; miniature CubeSats for education and research; and military/defense satellites.

Loading next visibility...
Identifier
25419, 1998-046G
Orbit
LEO
Country
Flag of USUS / ORB
Related business
Manufacturer
OSC-Germantown
Mission
Non-operational Commercial Communications
Bus & Motor
MICROSTAR, Unknown motor
Mass
42 kg wet, 42 kg dry
Launch date (UTC)
1998-08-02 (27 years ago)
Launch vehicle
PEGASUS XL/HAPS
Launch site
Pegasus Launch, Eastern Range Air Space (ERAS)
Object type
Payload
Rocket body
Debris
Shape & HBR
Cyl + 2 Pan, 4.2 m
Radar Cross Section
1.484 m², Medium (>0.1 m² and < 1m²)

Expand to show TLE details & history
Last TLE update: 21 hours ago

TLE from 21 hours ago
0 ORBCOMM FM 14
1 25419U 98046G   25293.76101289  .00002293  00000-0  77630-3 0  9995
2 25419  44.9948 299.7476 0004388 239.5967 120.4448 14.39328570422305
Epoch: 2025-10-20T18:15Z
TLE epoch observation values (Epoch: 2025-10-20T18:15:51.513Z)
Latitude
-0.00004°
Longitude
-3.67577°
Altitude
762.304 km
Speed
7.474 km/s
True Right ascension
19h 58m 59s
True Declination
0° 00' 00"
Sunlit
Object was in daylight at epoch
Visualization orbit readout
Latitude
Unknown
Longitude
Unknown
Altitude
Unknown
Speed
Unknown
Apparent Right ascension
Unknown
Apparent Declination
Unknown
Sunlit
N/A
Visualization observer readout
Local Sidereal Time
10:01:24
Azimuth
Unknown
Elevation
Unknown
Doppler factor
Unknown
Orbital elements
Apogee altitude
765.399 km
Perigee altitude
759.132 km
Semi-major axis
7,140.403 km
Eccentricity
0.00044
Inclination
44.9948°
RAAN
299.7476°
Arg. of periapsis
239.5967°
True anomaly
120.48814°
Mean anomaly
120.4448°
Eccentric anomaly
120.46647°
Mean motion
3.59715 °/min
Orbital period
100.08 mins
BSTAR
0.0007763
Loading maneuver chart data...
Computing Atmospheric mass density...

Documentation

Showing up to 5 results
|